STARLINK-32308, 61663

Orbit data source: Space-Track

STARLINK-32308, 61663 is a payload satellite owned by SpaceX/Seattle (US) in LEO that was launched on Sat, 26 Oct 2024 UTC via an FALCON 9 launch vehicle from the Air Force Eastern Test Range (AFETR). Payload-class satellites include a variety of spacecraft equipped with specific instruments for various scientific and technological missions. These include communications satellites like Starlink; space stations such as the ISS; scientific satellites like the Hubble; Earth observation satellites from companies like Planet Labs, Umbra, and HawkEye 360; GPS; miniature CubeSats for education and research; and military/defense satellites.

Loading next visibility...
Identifier
61663, 2024-193C
Orbit
LEO
Country
Flag of USUS
Related business
Manufacturer
SpaceX/Seattle
Mission
Operational Commercial Communications
Bus & Motor
STARLINK V2M, Unknown motor
Mass
730 kg wet, ~700 kg dry
Launch date (UTC)
2024-10-26 (2 years ago)
Launch vehicle
FALCON 9
Launch site
Air Force Eastern Test Range (AFETR)
Object type
Payload
Rocket body
Debris
Shape & HBR
Box + 2 Pan, 17.7 m
Radar Cross Section
33.884 m², Large (>1 m²)

Expand to show TLE details & history
Last TLE update: 10 hours ago

TLE from 10 hours ago
0 STARLINK-32308
1 61663U 24193C   26125.50001156  .00007789  00000-0  24163-3 0  9995
2 61663  53.1588 186.7884 0001671  81.0841 124.8852 15.34372852  5907
Epoch: 2026-05-05T12:00Z
TLE epoch observation values (Epoch: 2026-05-05T12:00:00.998Z)
Latitude
-20.71106°
Longitude
-20.22783°
Altitude
469.228 km
Speed
7.631 km/s
True Right ascension
01h 32m 36s
True Declination
-20° 35' 34"
Sunlit
Object was in daylight at epoch
Visualization orbit readout
Latitude
Unknown
Longitude
Unknown
Altitude
Unknown
Speed
Unknown
Apparent Right ascension
Unknown
Apparent Declination
Unknown
Sunlit
N/A
Visualization observer readout
Local Sidereal Time
06:10:14
Azimuth
Unknown
Elevation
Unknown
Doppler factor
Unknown
Orbital elements
Apogee altitude
464.184 km
Perigee altitude
461.898 km
Semi-major axis
6,841.178 km
Eccentricity
0.00017
Inclination
53.1588°
RAAN
186.7884°
Arg. of periapsis
81.0841°
True anomaly
124.90091°
Mean anomaly
124.8852°
Eccentric anomaly
124.89305°
Mean motion
3.83572 °/min
Orbital period
93.85 mins
BSTAR
0.00024163
Loading maneuver chart data...
Computing Atmospheric mass density...
Loading historical data...
Loading historical data...
Loading historical data...
Loading historical data...
Loading historical data...
Loading historical data...
Loading historical data...

Documentation

Showing up to 5 results
|